Location: Archemont
(49.1579°N, 1.7598°E)
Time: 10:44:14
(UTC+00:00)

S-56A Canister/Altair - Pass Details

Date: 25 April 2024
Orbit: 638 x 2488 km, 38.9° (Epoch: 20 May)

Event Time Altitude Azimuth Distance (km) Brightness Sun altitude
Rises 18:12:06 0° 257° (WSW) 3,231 12.1 6.8°
Reaches altitude 10° 18:14:29 10° 247° (WSW) 2,456 11.1 6.4°
Maximum altitude 18:19:33 32° 185° (S) 1,708 9.3 5.6°
Drops below altitude 10° 18:26:32 10° 127° (SE) 3,433 10.3 4.5°
Sets 18:30:29 0° 119° (ESE) 4,743 10.9 3.9°
